Flag for China Weather past 2 weeks in Nanning, Guangxi, China

Now
70 °F

Passing clouds.


Feels Like: 70 °F
Forecast: 59 / 74 °F
Wind: 3 mph from Southeast

Location: Nanning Airport

Current Time: Jan 25, 2015 at 6:32:36 PM

Latest Report: Jan 25, 2015 at 6:00 PM


Visibility: N/A

Pressure: 29.98 "Hg

Humidity: 73%

Dew point: 61 °F

Location of NanningLocation

Historic Weather in Nanning — Graph

°F

Nanning temperature yesterday

Maximum temperature yesterday: 70 °F (at 3:00 PM)
Minimum temperature yesterday: 61 °F (at 3:00 AM)
Average temperature yesterday: 65 °F

Past Weeks' High & Low Weather Summary

 TemperatureHumidityPressure
High73 °F (Jan 22, 2:00 PM)100% (Jan 10, 10:00 PM)30.33 "Hg (Jan 10, 10:00 PM)
Low39 °F (Jan 15, 6:00 AM)41% (Jan 22, 2:00 PM)29.89 "Hg (Jan 24, 4:00 PM)
Average57 °F80%30.17 "Hg
* Reported Jan 10 5:00 PM — Jan 25 5:00 PM, Nanning, Weather by CustomWeather, © 2014

Note: Actual official high and low records may vary slightly from our data, if they occured in-between our weather recording intervals... More about our weather records

Advertising

Nanning weather history for previous 24 hours

 ConditionsComfort  
Time TempWeatherWind HumidityBarometerVisibility
5:00 PM
Jan 25
72 °FPassing clouds.6 mph69%29.98 "HgN/A
4:00 PM72 °FPassing clouds.6 mph69%29.98 "HgN/A
3:00 PM72 °FPassing clouds.6 mph73%29.98 "HgN/A
2:00 PM72 °FPassing clouds.6 mph69%30.01 "HgN/A
1:00 PM70 °FPassing clouds.6 mph73%30.04 "HgN/A
12:00 PM68 °FScattered clouds.8 mph78%30.07 "HgN/A
11:00 AM66 °FScattered clouds.8 mph83%30.09 "Hg4 mi
10:00 AM64 °FScattered clouds.8 mph88%30.09 "Hg4 mi
9:00 AM63 °FFog.3 mph94%30.07 "Hg3 mi
8:00 AM63 °FFog.8 mph88%30.07 "Hg2 mi
7:00 AM63 °FFog.6 mph94%30.04 "Hg3 mi
6:00 AM61 °FPassing clouds.3 mph94%30.01 "Hg4 mi
5:00 AM63 °FClear.6 mph88%30.01 "Hg4 mi
4:00 AM63 °FClear.8 mph88%30.01 "Hg4 mi
3:00 AM63 °FPassing clouds.3 mph88%30.01 "Hg4 mi
2:00 AM63 °FPassing clouds.3 mph83%30.01 "Hg4 mi
1:00 AM61 °FClear.1 mph88%30.01 "Hg4 mi
12:00 AM61 °FClear.1 mph88%30.01 "Hg5 mi
11:00 PM
Jan 24
63 °FClear.1 mph83%30.01 "Hg5 mi
10:00 PM63 °FClear.1 mph83%29.98 "Hg10 mi
9:00 PM64 °FPassing clouds.3 mph78%29.98 "HgN/A
8:00 PM64 °FPassing clouds.3 mph78%29.95 "HgN/A
7:00 PM66 °FPassing clouds.6 mph73%29.95 "HgN/A
6:00 PM68 °FSunny.10 mph69%29.92 "Hg10 mi
Weather by CustomWeather, © 2014

See weather overviewHow to use our weather pages